Flag for Vietnam Weather past 2 weeks in Hanoi, Vietnam

Now
79 °F

Light rain. Broken clouds.


Feels Like: 83 °F
Forecast: 75 / 87 °F
Wind: 6 mph from North

Location: Ha Noi Airport

Current Time: Aug 29, 2014 at 10:25:04 AM

Latest Report: Aug 29, 2014 at 9:30 AM


Visibility: 5 mi

Pressure: 29.86 "Hg

Humidity: 94%

Dew point: 77 °F

Location of HanoiLocation

Historic Weather in Hanoi — Graph

°F

Hanoi temperature yesterday

Maximum temperature yesterday: 86 °F (at 12:30 PM)
Minimum temperature yesterday: 77 °F (at 2:30 AM)
Average temperature yesterday: 80 °F

Past Weeks' High & Low Weather Summary

 TemperatureHumidityPressure
High95 °F (Aug 17, 1:00 PM)100% (Aug 16, 2:30 AM)29.86 "Hg (Aug 16, 2:30 AM)
Low77 °F (Aug 15, 1:30 AM)53% (Aug 17, 12:30 PM)29.59 "Hg (Aug 17, 3:00 PM)
Average82 °F86%29.75 "Hg
* Reported Aug 14 9:00 AM — Aug 29 9:30 AM, Hanoi, Weather by CustomWeather, © 2014

Note: Actual official high and low records may vary slightly from our data, if they occured in-between our weather recording intervals... More about our weather records

Advertising

Hanoi weather history for previous 24 hours

 ConditionsComfort  
Time TempWeatherWind HumidityBarometerVisibility
9:30 AM
Aug 29
79 °FLight rain. Broken clouds.6 mph94%29.86 "Hg5 mi
9:00 AM79 °FBroken clouds.9 mph94%29.83 "HgN/A
8:00 AM77 °FHeavy rain. Broken clouds.7 mph100%29.83 "Hg1 mi
7:30 AM77 °FRain. Broken clouds.12 mph100%29.83 "Hg3 mi
6:30 AM77 °FRain. Broken clouds.15 mph94%29.80 "Hg3 mi
6:00 AM77 °FLight rain. Broken clouds.13 mph100%29.77 "HgN/A
5:30 AM77 °FLight rain. Partly cloudy.13 mph94%29.77 "HgN/A
5:00 AM77 °FRain. Partly cloudy.15 mph94%29.74 "Hg5 mi
4:30 AM77 °FPartly cloudy.10 mph100%29.74 "HgN/A
4:00 AM77 °FPartly cloudy.10 mph100%29.74 "HgN/A
3:30 AM77 °FPartly cloudy.8 mph100%29.74 "HgN/A
3:00 AM77 °FPartly cloudy.7 mph100%29.74 "HgN/A
2:30 AM77 °FRain. Partly cloudy.8 mph100%29.74 "Hg3 mi
2:00 AM77 °FLight rain. Partly cloudy.17 mph100%29.74 "HgN/A
1:30 AM77 °FRain. Partly cloudy.13 mph94%29.74 "Hg3 mi
1:00 AM77 °FPartly cloudy.10 mph94%29.74 "HgN/A
12:30 AM77 °FLight rain. Partly cloudy.14 mph100%29.74 "Hg5 mi
12:00 AM77 °FPartly cloudy.15 mph100%29.74 "HgN/A
11:30 PM
Aug 28
77 °FPartly cloudy.15 mph100%29.74 "HgN/A
11:00 PM77 °FRain. Partly cloudy.17 mph100%29.74 "Hg3 mi
10:30 PM77 °FLight rain. Partly cloudy.21 mph100%29.71 "Hg5 mi
10:00 PM77 °FRain. Partly cloudy.16 mph94%29.68 "Hg2 mi
9:30 PM77 °FRain. Partly cloudy.12 mph94%29.68 "Hg2 mi
9:00 PM79 °FPartly cloudy.14 mph89%29.68 "HgN/A
8:30 PM79 °FPartly cloudy.12 mph94%29.68 "HgN/A
8:00 PM79 °FLight rain. Partly cloudy.14 mph94%N/AN/A
7:30 PM79 °FRain. Partly cloudy.7 mph94%29.68 "Hg2 mi
7:00 PM81 °FPassing clouds.9 mph89%29.65 "HgN/A
6:30 PM79 °FPartly cloudy.12 mph94%29.65 "HgN/A
6:00 PM81 °FPartly sunny.9 mph89%29.65 "HgN/A
5:30 PM81 °FPartly sunny.7 mph89%29.65 "HgN/A
5:00 PM81 °FPartly sunny.8 mph89%29.65 "HgN/A
4:30 PM79 °FLight rain. Partly sunny.8 mph94%29.65 "HgN/A
4:00 PM79 °FLight rain. Partly sunny.8 mph94%29.65 "HgN/A
3:30 PM79 °FLight rain. Partly sunny.7 mph94%29.65 "HgN/A
3:00 PM79 °FHeavy rain. Broken clouds.3 mph94%29.65 "Hg1 mi
2:30 PM82 °FRain. Fog.9 mph84%29.65 "Hg1 mi
2:00 PM84 °FPartly sunny.9 mph79%29.68 "HgN/A
1:30 PM84 °FBroken clouds.10 mph74%29.68 "HgN/A
1:00 PM84 °FPartly sunny.12 mph70%29.71 "HgN/A
12:30 PM86 °FPartly sunny.12 mph66%29.71 "HgN/A
12:00 PM84 °FPartly sunny.9 mph74%29.74 "HgN/A
11:30 AM84 °FSunny.12 mph70%29.74 "Hg10 mi
11:00 AM84 °FSunny.9 mph70%29.77 "Hg10 mi
10:30 AM84 °FSunny.7 mph74%29.77 "Hg10 mi
10:00 AM84 °FPassing clouds.8 mph79%29.77 "HgN/A
Weather by CustomWeather, © 2014

See weather overviewHow to use our weather pages